Weather History for Raleigh-Durham Airport, NC

Change the Weather History Date:

Sunday, March 17, 2013

  Actual Average Record
Temperature  
Mean Temperature 50 °F 52 °F  
Max Temperature 61 °F 64 °F 92 °F (1945)
Min Temperature 39 °F 40 °F 18 °F (1981)
Degree Days  
Heating Degree Days 15 14  
Month to date heating degree days 329 266  
Since 1 July heating degree days 2775 2838  
Cooling Degree Days 0 0  
Month to date cooling degree days 0 0  
Year to date cooling degree days 2 1  
Moisture  
Dew Point 44 °F    
Average Humidity 77    
Maximum Humidity 93    
Minimum Humidity 61    
Precipitation  
Precipitation T in 0.14 in 1.33 in (1965)
Month to date precipitation 1.07 2.30  
Year to date precipitation 8.25 9.03  
Snow  
Snow 0.00 in 0.00 in 0.50 in (1915)
Month to date snowfall 0.0 0.4  
Since 1 July snowfall 1.7 5.9  
Snow Depth 0.00 in    
Sea Level Pressure  
Sea Level Pressure 30.01 in    
Wind  
Wind Speed 10 mph (ENE)    
Max Wind Speed 20 mph    
Max Gust Speed 25 mph    
Visibility 8 miles    
Events Fog , Rain    
T = Trace of Precipitation, MM = Missing Value Source: NWS Daily Summary

Daily Weather History Graph

Daily Weather History Graph

Search for Another Location

Airport:

Trip Planner

Search our weather history database for the weather conditions in past years. The results will help you decide how hot, cold, wet, or windy it might be!

Date:

Astronomy

Mar. 17, 2013 Rise Set
Actual Time 7:22 AM EDT 7:24 PM EDT
Civil Twilight 6:57 AM EDT 7:50 PM EDT
Nautical Twilight 6:27 AM EDT 8:19 PM EDT
Astronomical Twilight 5:57 AM EDT 8:49 PM EDT
Moon 10:44 AM EDT (3/17) 12:20 AM EDT (3/17)
Length of Visible Light 12h 52m
Length of Day
12h 01m
Waxing Crescent, 31% of the Moon is Illuminated
Mar 17
Waxing Crescent
Mar 19
First Quarter
Mar 27
Full
Apr 3
Last Quarter
Apr 10
New

Hourly Weather History & Observations

Time (EDT) Temp. Windchill Dew Point Humidity Pressure Visibility Wind Dir Wind Speed Gust Speed Precip Events Conditions
12:51 AM 60.1 °F - 48.0 °F 64% 29.83 in 10.0 mi WSW 4.6 mph - N/A   Scattered Clouds
1:51 AM 55.9 °F - 48.0 °F 75% 29.85 in 10.0 mi WSW 4.6 mph - N/A   Partly Cloudy
2:51 AM 55.9 °F - 48.0 °F 75% 29.86 in 10.0 mi Calm Calm - N/A   Scattered Clouds
3:51 AM 54.0 °F - 46.9 °F 77% 29.87 in 10.0 mi Calm Calm - N/A   Scattered Clouds
4:51 AM 52.0 °F - 46.9 °F 83% 29.89 in 10.0 mi NNE 3.5 mph - N/A   Scattered Clouds
5:51 AM 54.0 °F - 50.0 °F 86% 29.91 in 10.0 mi ENE 9.2 mph - N/A   Mostly Cloudy
6:14 AM 53.6 °F - 50.0 °F 88% 29.94 in 9.0 mi ENE 11.5 mph - N/A   Mostly Cloudy
6:23 AM 53.6 °F - 51.8 °F 94% 29.94 in 9.0 mi ENE 10.4 mph - N/A   Mostly Cloudy
6:51 AM 53.1 °F - 51.1 °F 93% 29.94 in 6.0 mi ENE 9.2 mph - N/A   Overcast
7:30 AM 53.6 °F - 51.8 °F 94% 29.97 in 2.0 mi NE 6.9 mph - N/A   Overcast
7:51 AM 53.1 °F - 51.1 °F 93% 29.96 in 2.0 mi NE 6.9 mph - N/A   Overcast
8:15 AM 53.6 °F - 51.8 °F 94% 29.97 in 1.5 mi ENE 8.1 mph - N/A   Overcast
8:36 AM 53.6 °F - 51.8 °F 94% 29.97 in 0.5 mi East 9.2 mph - N/A Fog Fog
8:51 AM 53.1 °F - 51.1 °F 93% 29.98 in 0.5 mi ENE 11.5 mph - N/A Fog Fog
9:51 AM 52.0 °F - 48.9 °F 89% 30.02 in 1.0 mi NE 9.2 mph - N/A   Overcast
10:04 AM 53.6 °F - 48.2 °F 82% 30.02 in 6.0 mi NE 9.2 mph - N/A   Overcast
10:27 AM 55.4 °F - 46.4 °F 72% 30.03 in 8.0 mi NE 9.2 mph - N/A   Mostly Cloudy
10:51 AM 55.9 °F - 46.0 °F 69% 30.04 in 8.0 mi NE 11.5 mph 18.4 mph N/A   Mostly Cloudy
11:51 AM 55.0 °F - 43.0 °F 64% 30.06 in 9.0 mi ENE 12.7 mph 19.6 mph N/A   Overcast
12:51 PM 55.0 °F - 42.1 °F 62% 30.06 in 10.0 mi NE 13.8 mph 19.6 mph N/A   Overcast
1:51 PM 52.0 °F - 39.9 °F 63% 30.06 in 10.0 mi NE 15.0 mph 23.0 mph N/A   Overcast
2:51 PM 51.8 °F - 39.2 °F 62% 30.05 in 10.0 mi NE 12.7 mph - N/A   Overcast
3:51 PM 50.0 °F - 39.0 °F 66% 30.04 in 10.0 mi ENE 12.7 mph - N/A   Overcast
4:51 PM 48.9 °F - 37.9 °F 66% 30.05 in 10.0 mi NE 13.8 mph 19.6 mph N/A   Overcast
5:51 PM 48.0 °F - 37.0 °F 66% 30.06 in 10.0 mi ENE 13.8 mph 19.6 mph N/A   Overcast
6:51 PM 46.0 °F 39.6 °F 37.0 °F 71% 30.09 in 10.0 mi NE 15.0 mph 21.9 mph N/A   Overcast
7:51 PM 45.0 °F 38.5 °F 36.0 °F 71% 30.11 in 10.0 mi ENE 13.8 mph - N/A   Overcast
8:51 PM 44.1 °F 36.8 °F 36.0 °F 73% 30.12 in 9.0 mi East 16.1 mph 19.6 mph N/A   Overcast
9:34 PM 42.8 °F 35.8 °F 35.6 °F 76% 30.14 in 9.0 mi ENE 13.8 mph 20.7 mph N/A   Overcast
9:51 PM 43.0 °F 36.0 °F 35.1 °F 74% 30.16 in 10.0 mi ENE 13.8 mph - N/A   Overcast
10:51 PM 42.1 °F 36.1 °F 36.0 °F 79% 30.17 in 7.0 mi ENE 10.4 mph - N/A   Overcast
11:28 PM 39.2 °F 33.6 °F 37.4 °F 93% 30.18 in 3.0 mi ENE 8.1 mph - 0.00 in Rain Light Rain
11:51 PM 39.9 °F 33.9 °F 37.9 °F 93% 30.18 in 3.0 mi ENE 9.2 mph - 0.00 in Rain Light Rain